Location: Bovenkerk
(52.2915°N, 4.8336°E)
Time: 18:45:25
(UTC+00:00)

Cosmos 2322 Rocket - Pass Details

Date: 09 April 2020
Orbit: 834 x 849 km, 71.0° (Epoch: 03 June)

Event Time Altitude Azimuth Distance (km) Brightness Sun altitude
Rises 23:17:02 0° 327° (NNW) 3,406 6.3 -29.4°
Reaches altitude 10° 23:19:32 10° 323° (NW) 2,465 5.3 -29.5°
Enters shadow 23:24:03 49° 283° (WNW) 1,078 2.7 -29.6°
